CYVRCYKA

Guest
Details From CYVR - Vancouver Intl
To CYKA - Kamloops
Flight Number -
Tags Decoded
Created
Modified
Stats Distance 139 nm / 258 km
Max Altitude 0 ft / 0 m
Waypoints 2
Social Downloads 3
Likes 0
Share VATSIM

Download

Looking for another format? Having issues loading an existing format? Contact us
Advertisement - Login to hide

Notes

Decoded

Route

CYVR CYKA

ID Type Via Altitude Latitude Longitude Leg Dist Tot Dist Heading (true) Name
O CYVR APT - 0 ft / 0 m 49.20509˚ -123.20131˚ - 0 nm - -
O CYKA APT - 0 ft / 0 m 50.69946˚ -120.44626˚ 139 nm 139 nm 49° / 51° -

Altitude Profile

Advertisement - Login to hide

CYVR

Details ICAO CYVR (YVR)
Name Vancouver Intl
Region Canada
Timezone America/Vancouver (UTC-8.0)
Stats Elevation 14 ft / 4 m (AMSL)
Location 49.192331° -123.187993°
Runways 4
Magnetic Variation 16.266° E

METAR

CYVR 140600Z 03003KT 340V040 20SM FEW170 SCT190 BKN230 05/04 A3041 RMK AC1AS3CS1 SLP300

Decode

TAF

TAF CYVR 140538Z 1406/1512 VRB03KT P6SM BKN200 PROB30 1410/1414 1SM BR BECMG 1419/1421 30008KT FM150700 10005KT P6SM BKN150 RMK NXT FCST BY 140900Z

Decode

Departure Runways

ID Width Length Bearing (true) Bearing (mag) Surface Threshold Offset Overrun Length
08 75 ft / 23 m 3,497 ft / 1,066 m 100.01° 83.74° Concrete 0 ft / 0 m 0 ft / 0 m
08L 200 ft / 61 m 9,910 ft / 3,021 m 99.80° 83.53° Concrete 0 ft / 0 m 0 ft / 0 m
08R 200 ft / 61 m 11,491 ft / 3,502 m 99.94° 83.67° Asphalt 0 ft / 0 m 0 ft / 0 m
12 200 ft / 61 m 7,291 ft / 2,222 m 141.91° 125.64° Asphalt 0 ft / 0 m 0 ft / 0 m
26 75 ft / 23 m 3,497 ft / 1,066 m 280.02° 263.75° Concrete 0 ft / 0 m 0 ft / 0 m
26L 200 ft / 61 m 11,491 ft / 3,502 m 279.97° 263.70° Asphalt 0 ft / 0 m 0 ft / 0 m
26R 200 ft / 61 m 9,910 ft / 3,021 m 279.83° 263.56° Concrete 0 ft / 0 m 0 ft / 0 m
30 200 ft / 61 m 7,291 ft / 2,222 m 321.93° 305.66° Asphalt 0 ft / 0 m 0 ft / 0 m

CYKA

Details ICAO CYKA (YKA)
Name Kamloops
Region Canada
Timezone America/Vancouver (UTC-8.0)
Stats Elevation 1,133 ft / 345 m (AMSL)
Location 50.701875° -120.442709°
Runways 2
Magnetic Variation 16.080° E

METAR

CYKA 140600Z 00000KT 20SM OVC031 00/M02 A3057 RMK SC8 SLP374

Decode

TAF

TAF CYKA 140638Z 1407/1419 VRB03KT P6SM OVC030 TEMPO 1407/1419 OVC020 BECMG 1415/1417 10007KT RMK NXT FCST BY 141300Z

Decode

Destination Runways

ID Width Length Bearing (true) Bearing (mag) Surface Threshold Offset Overrun Length
04 49 ft / 15 m 2,815 ft / 858 m 61.02° 44.94° Asphalt 686 ft / 209 m 0 ft / 0 m
08 148 ft / 45 m 5,999 ft / 1,828 m 103.28° 87.20° Asphalt 0 ft / 0 m 0 ft / 0 m
22 49 ft / 15 m 2,815 ft / 858 m 241.03° 224.95° Asphalt 0 ft / 0 m 0 ft / 0 m
26 148 ft / 45 m 5,999 ft / 1,828 m 283.30° 267.22° Asphalt 0 ft / 0 m 0 ft / 0 m

Approach Navaids

Runway Type Ident Frequency Range Bearing (true) Bearing (mag) Slope Elevation
26 Localiser XPP 109.90 MHz 18 nm / 33 km 285.00° 268.92° - 1,133 ft / 345 m (AMSL)

Popular Alternatives